Location: Altenst�hlen
(53.5567°N, 8.9425°E)
Time: 10:15:40
(UTC+00:00)

H-2A R/B - Pass Details

Date: 23 October 2019
Orbit: 734 x 836 km, 98.3° (Epoch: 11 November)

Event Time Altitude Azimuth Distance (km) Brightness Sun altitude
Exits shadow 17:40:42 20° 87° (E) 1,822 3.3 -14.0°
Maximum altitude 17:42:39 25° 56° (NE) 1,631 3.2 -14.3°
Drops below altitude 10° 17:47:00 10° 3° (N) 2,463 4.6 -14.9°
Sets 17:49:44 0° 351° (N) 3,403 5.5 -15.3°
